[[{"header":{"parameterUnit":"m.s-1","parameterCategory":1,"la1":30.2991,"la2":30.254,"lo1":-89.0895,"lo2":-89.0444,"dy":0.0017,"dx":0.0017,"nx":28,"ny":28,"refTime":"2026-01-08T03:00:00:Z","depth":0,"parameterNumber":2,"parameterNumberName":"U-component_of_WINDS"},"data":[0,0,0,0,0,0,0,0,0,0,0,0,0,0,0,0,0,0,0,0,0,0,0,0,0,0,0,0,0,0,0,0,0,0,0,0,0,0,0,0,0,0,0,0,0,0,0,0,0,0,0,0,0,0,0,0,0,0,-2.7097,-2.7099,0,-2.7229,-2.723,-2.7232,-2.7286,-2.7286,-2.7285,-2.7285,-2.7423,-2.7426,-2.743,0,0,0,0,0,0,0,0,0,0,0,0,0,-2.6897,-2.69,-2.7097,-2.7099,-2.71,-2.7228,-2.723,-2.7232,-2.7286,-2.7286,-2.7285,-2.7285,-2.7421,-2.7426,-2.7431,0,0,0,0,0,0,0,0,0,0,0,0,0,-2.7001,-2.6901,-2.7097,-2.7143,-2.7148,-2.7228,-2.723,-2.7233,-2.7286,-2.7286,-2.7285,-2.7285,-2.742,-2.7425,-2.7431,-2.7476,0,0,-2.7449,-2.7452,0,0,0,0,0,0,0,0,-2.6995,-2.7009,-2.7134,-2.714,-2.7146,-2.724,-2.721,-2.7314,-2.7286,-2.7234,-2.7285,-2.7285,-2.7362,-2.7373,-2.7399,-2.7483,-2.7489,-2.745,-2.7453,-2.7456,-2.7458,0,0,0,0,0,0,0,-2.6988,-2.7003,-2.7149,-2.7136,-2.7143,-2.7158,-2.7172,-2.723,-2.7299,-2.7238,-2.7243,-2.7257,-2.7366,-2.7393,-2.7402,-2.7491,-2.745,-2.7455,-2.7458,-2.7461,-2.7619,-2.762,0,0,0,0,0,0,-2.6973,-2.6997,-2.7145,-2.7153,-2.7068,-2.7162,-2.7178,-2.7211,-2.7299,-2.7311,-2.7257,-2.7259,-2.7383,-2.7395,-2.7407,-2.7466,-2.7456,-2.7461,-2.7465,-2.7618,-2.7619,-2.762,0,0,0,0,0,0,-2.6968,-2.6986,-2.714,-2.7076,-2.7097,-2.7166,-2.7202,-2.7213,-2.7241,-2.7313,-2.7326,-2.7272,-2.7383,-2.7399,-2.7459,-2.7472,-2.7464,-2.7469,-2.7617,-2.7619,-2.7619,-2.7583,0,0,0,0,0,0,-2.6962,-2.6984,-2.7,-2.7076,-2.71,-2.7188,-2.7203,-2.7216,-2.725,-2.7254,-2.733,-2.7343,-2.7384,-2.745,-2.7464,-2.748,-2.7474,-2.7617,-2.7618,-2.7619,-2.7584,-2.7583,-2.7582,0,0,0,0,0,-2.6955,-2.6986,-2.7001,-2.7019,-2.7123,-2.7188,-2.7202,-2.7248,-2.7251,-2.7269,-2.7316,-2.734,-2.7468,-2.7455,-2.7473,-2.7489,-2.7616,-2.7618,-2.7619,-2.7584,-2.7583,-2.7582,0,0,0,0,0,0,-2.691,-2.6996,-2.7014,-2.707,-2.7121,-2.7197,-2.7221,-2.7246,-2.7298,-2.7299,-2.7356,-2.7372,-2.7427,-2.7465,-2.7449,-2.7538,-2.7544,-2.7549,-2.7511,-2.7511,-2.7511,-2.75,-2.7479,0,0,0,0,0,-2.6907,-2.6952,-2.7025,-2.7067,-2.7092,-2.7152,-2.7183,-2.7214,-2.7269,-2.7292,-2.7343,-2.7397,-2.7449,-2.7482,-2.7535,-2.759,-2.7608,-2.761,-2.7609,-2.7609,-2.7612,-2.7645,-2.7647,-2.7625,-2.7625,-2.7625,0,0,-2.69,-2.6953,-2.6978,-2.706,-2.7103,-2.715,-2.717,-2.7218,-2.7254,-2.7299,-2.7358,-2.7398,-2.7462,-2.7519,-2.7547,-2.7552,-2.7622,-2.761,-2.7609,-2.7613,-2.7646,-2.7648,-2.765,-2.7626,-2.7626,-2.7625,0,0,-2.6912,-2.6956,-2.6996,-2.7039,-2.7104,-2.7144,-2.7154,-2.7226,-2.7254,-2.7314,-2.7349,-2.7393,-2.7482,-2.7526,-2.756,-2.759,-2.7614,-2.7605,-2.7602,-2.7633,-2.7634,-2.7636,-2.7647,-2.765,-2.7609,-2.7609,-2.7609,0,-2.6896,-2.6966,-2.7014,-2.706,-2.7096,-2.7138,-2.718,-2.722,-2.7299,-2.7323,-2.7327,-2.744,-2.7486,-2.7555,-2.7562,-2.7588,-2.7602,-2.7596,-2.763,-2.7632,-2.7635,-2.7646,-2.765,-2.7607,-2.7607,-2.7607,-2.7608,0,-2.6944,-2.6992,-2.7017,-2.7091,-2.7129,-2.7173,-2.7228,-2.7262,-2.729,-2.7329,-2.7391,-2.7448,-2.7512,-2.7531,-2.7559,-2.7604,-2.7605,-2.7619,-2.7626,-2.7635,-2.7646,-2.765,-2.7605,-2.7605,-2.7606,-2.7606,0,0,-2.6931,-2.703,-2.7039,-2.7073,-2.7148,-2.7187,-2.7234,-2.7296,-2.7323,-2.7377,-2.7418,-2.7492,-2.7506,-2.7544,-2.7578,-2.7606,-2.7625,-2.7617,-2.7619,-2.7616,-2.7679,-2.7668,-2.7672,-2.7642,-2.7643,-2.7644,-2.7674,0,-2.6952,-2.7035,-2.708,-2.7145,-2.719,-2.7232,-2.7273,-2.7324,-2.7362,-2.7408,-2.7451,-2.7503,-2.7517,-2.7541,-2.7569,-2.7617,-2.7639,-2.7615,-2.7682,-2.7683,-2.7664,-2.7677,-2.7666,-2.769,-2.7678,-2.7679,-2.768,0,-2.6989,-2.704,-2.7109,-2.7179,-2.72,-2.7235,-2.7296,-2.7339,-2.7398,-2.7425,-2.7468,-2.7502,-2.7553,-2.7557,-2.7629,-2.7612,-2.7642,-2.767,-2.7672,-2.768,-2.7681,-2.7685,-2.77,-2.7703,-2.7687,-2.7686,-2.7686,0,-2.6972,-2.7059,-2.7111,-2.714,-2.7223,-2.7247,-2.7283,-2.7342,-2.7377,-2.7431,-2.7454,-2.7513,-2.7546,-2.7592,-2.7641,-2.7639,-2.7709,-2.7716,-2.7733,-2.7732,-2.7745,-2.7744,-2.7764,-2.7765,-2.7765,-2.7765,-2.7765,0,-2.6991,-2.7032,-2.7105,-2.7137,-2.7184,-2.7236,-2.7282,-2.7321,-2.7373,-2.7415,-2.7456,-2.7494,-2.7557,-2.7603,-2.7642,-2.7697,-2.7711,-2.7735,-2.7745,-2.7731,-2.7728,-2.7751,-2.7751,-2.7766,-2.7766,-2.7765,-2.7765,0,-2.698,-2.7031,-2.7091,-2.7165,-2.7184,-2.7216,-2.728,-2.7313,-2.7354,-2.7406,-2.7422,-2.7486,-2.7543,-2.7597,-2.7674,-2.77,-2.7755,-2.7768,-2.7734,-2.7739,-2.7753,-2.7751,-2.7789,-2.7797,-2.7792,-2.7792,-2.7792,0,-2.6989,-2.7021,-2.7098,-2.7128,-2.7163,-2.7211,-2.7247,-2.73,-2.7335,-2.7406,-2.7431,-2.7491,-2.7541,-2.7631,-2.7686,-2.7745,-2.7759,-2.7769,-2.7768,-2.7754,-2.7759,-2.7757,-2.776,-2.7767,-2.7767,-2.7767,-2.7767,0,-2.7,-2.7023,-2.7072,-2.713,-2.717,-2.7219,-2.7269,-2.7292,-2.7354,-2.7392,-2.745,-2.749,-2.7568,-2.7627,-2.7692,-2.7731,-2.776,-2.7766,-2.7774,-2.776,-2.7739,-2.775,-2.7731,-2.7765,-2.7765,-2.7766,-2.7766,-2.7766,-2.6999,-2.703,-2.7088,-2.7142,-2.7184,-2.723,-2.7265,-2.731,-2.7359,-2.7426,-2.7455,-2.7514,-2.7574,-2.7664,-2.7703,-2.7751,-2.7757,-2.7767,-2.777,-2.7771,-2.7768,-2.7731,-2.7763,-2.7763,-2.7763,-2.7763,-2.7763,0,-2.7012,-2.7052,-2.71,-2.7168,-2.721,-2.7232,-2.7289,-2.7323,-2.7374,-2.7427,-2.7475,-2.7543,-2.7601,-2.766,-2.7721,-2.7748,-2.7763,-2.7763,-2.7761,-2.777,-2.7759,-2.7747,-2.775,-2.775,-2.775,-2.775,-2.775,-2.775,-2.7023,-2.7076,-2.7106,-2.7181,-2.7221,-2.7278,-2.7308,-2.7351,-2.7394,-2.7467,-2.7514,-2.7552,-2.7608,-2.7674,-2.7729,-2.7745,-2.7766,-2.7761,-2.7781,-2.777,-2.7771,-2.7771,-2.776,-2.7765,-2.7765,-2.7788,-2.7788,-2.7788]},{"header":{"parameterUnit":"m.s-1","parameterCategory":1,"la1":30.2991,"la2":30.254,"lo1":-89.0895,"lo2":-89.0444,"dy":0.0017,"dx":0.0017,"nx":28,"ny":28,"refTime":"2026-01-08T03:00:00:Z","depth":0,"parameterNumber":3,"parameterNumberName":"V-component_of_WINDS"},"data":[0,0,0,0,0,0,0,0,0,0,0,0,0,0,0,0,0,0,0,0,0,0,0,0,0,0,0,0,0,0,0,0,0,0,0,0,0,0,0,0,0,0,0,0,0,0,0,0,0,0,0,0,0,0,0,0,0,0,4.2851,4.2851,0,4.2936,4.2937,4.2938,4.2924,4.2922,4.2921,4.2919,4.301,4.3013,4.3017,0,0,0,0,0,0,0,0,0,0,0,0,0,4.268,4.2683,4.285,4.2852,4.2853,4.2936,4.2937,4.2938,4.2924,4.2922,4.292,4.2919,4.3008,4.3013,4.3017,0,0,0,0,0,0,0,0,0,0,0,0,0,4.2759,4.2684,4.285,4.2856,4.2857,4.2936,4.2937,4.2938,4.2924,4.2922,4.292,4.2918,4.3007,4.3012,4.3018,4.3098,0,0,4.3035,4.3038,0,0,0,0,0,0,0,0,4.2754,4.2765,4.2854,4.2855,4.2857,4.2917,4.291,4.2992,4.2925,4.2899,4.2919,4.2917,4.2981,4.2988,4.3009,4.3102,4.3106,4.3036,4.3039,4.3042,4.3043,0,0,0,0,0,0,0,4.2749,4.2761,4.2884,4.2855,4.2857,4.2855,4.2864,4.2925,4.2951,4.2901,4.29,4.291,4.2981,4.3004,4.3011,4.3107,4.3036,4.3041,4.3044,4.3046,4.3274,4.3277,0,0,0,0,0,0,4.2741,4.2757,4.2882,4.2887,4.2799,4.286,4.287,4.29,4.2951,4.2956,4.2912,4.2909,4.2995,4.3005,4.3015,4.3115,4.3042,4.3047,4.305,4.3272,4.3275,4.3278,0,0,0,0,0,0,4.2738,4.2752,4.2878,4.2822,4.2838,4.2865,4.2899,4.2903,4.2925,4.2959,4.2964,4.293,4.2994,4.3007,4.3078,4.3118,4.305,4.3055,4.3269,4.3273,4.3277,4.3314,0,0,0,0,0,0,4.2733,4.2751,4.278,4.2822,4.2841,4.2939,4.2902,4.2906,4.2935,4.2932,4.2977,4.2983,4.2993,4.307,4.3084,4.3124,4.3059,4.3265,4.3271,4.3275,4.3309,4.3318,4.3326,0,0,0,0,0,4.2727,4.2787,4.2782,4.2797,4.2877,4.2941,4.2952,4.2962,4.2938,4.2969,4.2991,4.2981,4.311,4.3077,4.3093,4.3136,4.3263,4.3269,4.3275,4.3305,4.3317,4.3326,0,0,0,0,0,0,4.2749,4.2792,4.2787,4.2863,4.2898,4.2938,4.2977,4.2973,4.3016,4.3012,4.3023,4.3034,4.3107,4.3128,4.309,4.3218,4.3184,4.3193,4.3202,4.3213,4.3221,4.3216,4.3064,0,0,0,0,0,4.2762,4.2809,4.2845,4.2908,4.2927,4.2949,4.2977,4.2982,4.302,4.3035,4.3062,4.31,4.315,4.3182,4.3229,4.3312,4.3324,4.3349,4.3358,4.3365,4.3374,4.3423,4.3436,4.3298,4.3297,4.3297,0,0,4.2791,4.2821,4.285,4.2914,4.2942,4.2992,4.2962,4.3015,4.3054,4.3043,4.3113,4.3135,4.3178,4.3257,4.3293,4.3277,4.3414,4.3372,4.3378,4.3383,4.3431,4.3444,4.3456,4.3302,4.3301,4.33,0,0,4.287,4.2895,4.2953,4.2982,4.3026,4.3041,4.3055,4.3096,4.311,4.3181,4.3175,4.3221,4.3305,4.3338,4.3365,4.346,4.3455,4.3475,4.3521,4.357,4.3581,4.3591,4.3628,4.3641,4.3483,4.3483,4.3484,0,4.2901,4.2975,4.2983,4.3039,4.3069,4.3062,4.3122,4.315,4.3207,4.3229,4.3209,4.3318,4.3346,4.3434,4.3458,4.3479,4.3498,4.3471,4.3578,4.3588,4.3598,4.3634,4.3647,4.3486,4.3486,4.3485,4.3485,0,4.3012,4.3064,4.3106,4.3162,4.3196,4.3253,4.3273,4.3307,4.3309,4.3327,4.3401,4.3435,4.3491,4.3512,4.3514,4.3602,4.3592,4.3575,4.3542,4.3613,4.3648,4.3661,4.349,4.3489,4.3488,4.3487,0,0,4.3107,4.3168,4.3184,4.3211,4.326,4.3301,4.3359,4.3414,4.3445,4.3485,4.3537,4.3609,4.3596,4.3627,4.3633,4.3675,4.3754,4.3655,4.3656,4.3675,4.3857,4.3871,4.3887,4.3749,4.3752,4.3754,4.3855,0,4.3193,4.3296,4.3307,4.3399,4.345,4.3445,4.3497,4.3534,4.3552,4.36,4.3621,4.3674,4.3649,4.3669,4.371,4.3735,4.3791,4.3728,4.3801,4.3803,4.3793,4.3904,4.3919,4.4012,4.3868,4.387,4.3872,0,4.3307,4.3351,4.3449,4.3495,4.3516,4.3562,4.3615,4.3659,4.3702,4.3713,4.375,4.3752,4.3815,4.3778,4.3868,4.3825,4.3855,4.3872,4.3876,4.3886,4.3844,4.392,4.4042,4.4057,4.3892,4.389,4.3889,0,4.3371,4.3455,4.3525,4.3548,4.3601,4.3635,4.3659,4.3699,4.3733,4.3779,4.3802,4.3855,4.3885,4.3928,4.3945,4.3916,4.4036,4.3999,4.405,4.405,4.4077,4.4076,4.4209,4.4092,4.4091,4.4091,4.4091,0,4.3467,4.3528,4.3555,4.3599,4.3669,4.3681,4.375,4.3773,4.381,4.386,4.3858,4.3906,4.3924,4.3976,4.399,4.4064,4.4077,4.409,4.4094,4.4092,4.4091,4.4114,4.4109,4.4095,4.4094,4.4093,4.4093,0,4.3551,4.3571,4.3649,4.3693,4.3706,4.3756,4.3796,4.3839,4.3858,4.3922,4.3938,4.3968,4.4029,4.405,4.4123,4.4132,4.4221,4.4217,4.4206,4.4208,4.4259,4.4255,4.4414,4.4437,4.4302,4.4303,4.4304,0,4.3613,4.366,4.3711,4.3744,4.377,4.3823,4.3858,4.3873,4.3909,4.3964,4.4002,4.4062,4.4111,4.4208,4.4238,4.4295,4.4295,4.4347,4.4304,4.4302,4.4301,4.4299,4.4306,4.4356,4.4357,4.4359,4.4359,0,4.3722,4.373,4.3779,4.3834,4.3875,4.3919,4.3961,4.3988,4.401,4.4052,4.4114,4.4152,4.4228,4.4289,4.4348,4.4375,4.4373,4.4373,4.4388,4.4389,4.4382,4.439,4.4232,4.4369,4.4368,4.4368,4.4367,4.4367,4.3799,4.3842,4.3886,4.3942,4.3976,4.4016,4.406,4.4086,4.4137,4.42,4.4206,4.4274,4.4319,4.4398,4.4428,4.4484,4.4469,4.4491,4.4497,4.4503,4.4509,4.4371,4.4494,4.4494,4.4493,4.4493,4.4493,0,4.3911,4.3939,4.3991,4.4051,4.4096,4.4088,4.4135,4.4175,4.4234,4.4276,4.4325,4.4399,4.4459,4.4494,4.4555,4.4593,4.4593,4.4608,4.4607,4.4615,4.4516,4.4498,4.4607,4.4607,4.4607,4.4607,4.4607,4.4607,4.3975,4.4049,4.4063,4.4156,4.4184,4.425,4.4278,4.4317,4.4351,4.4433,4.4483,4.4505,4.4546,4.461,4.4666,4.4675,4.4699,4.4717,4.4725,4.4633,4.4621,4.461,4.4593,4.4721,4.4721,4.482,4.4821,4.4821]}]]